Preview of NWS' New Version of Forecast
This preview is not operational and should not be used for support decisions.

Regional Weather Roundup (RWR)

Issued by National Weather Service (NWS)

                            
000
ASCA42 TJSJ 190410
RWRPR 
PUERTO RICO/U.S. VIRGIN ISLANDS HOURLY WEATHER ROUNDUP
NATIONAL WEATHER SERVICE SAN JUAN PR
1200 AM AST THU SEP 19 2019

PRZ001>002-007>008-010-190500-
PUERTO RICO
  
CITY           SKY/WX    TMP DP  RH WIND       PRES   REMARKS
SAN JUAN LMM   PTCLDY    81  75  83 E8        29.84F                  
AGUADILLA      CLEAR     79  72  78 CALM      29.86                   
CEIBA          CLEAR     82  75  78 E7        29.87F                  
$$

VIZ001>002-190500-
U.S. VIRGIN ISLANDS
  
CITY           SKY/WX    TMP DP  RH WIND       PRES   REMARKS
CHARLOTTE AMA  CLEAR     82  75  78 E7        29.85F                  
CHRISTIANSTED  MOCLDY    79  73  83 N6        29.86F                  
$$

HOURLY WEATHER ROUNDUP FOR THE NEWS MEDIA
  
CITY           SKY/WX    TMP DP  RH WIND       PRES   REMARKS
ORLANDO        CLOUDY    76  70  82 E5        30.03S                  
NEW YORK       FAIR      56  46  69 NE9       30.33R                  
NEWARK         FAIR      58  44  60 N7        30.31R                  
CHICAGO        FAIR      71  59  65 SE8       30.07S                  
HARTFORD       FAIR      43  40  89 CALM      30.32S                  
BOSTON         FAIR      55  42  61 N6        30.34F                  
DALLAS         CLEAR     80  72  76 E6        29.91R                  
PHILADELPHIA   FAIR      60  48  64 E8        30.31R                  
LOS ANGELES    PTCLDY    70  64  81 W5        29.88R                  
WASHINGTON DC  FAIR      62  53  72 SE7       30.27R